Home > Weather > Taunusstein > Past weeks

Flag for Germany Past Weather in Taunusstein, Hesse, Germany — Yesterday and Last 2 Weeks

Now
63 °F

Mostly cloudy.


Feels Like: 63 °F
Forecast: 52 / 65 °F
Wind: 12 mph from Northwest

Location: Wiesbaden Airport

Current Time: Jun 25, 2016 at 7:53:42 PM

Latest Report: Jun 25, 2016 at 6:58 PM


Visibility: N/A

Pressure: 29.97 "Hg

Humidity: 73%

Dew Point: 54 °F

Location of TaunussteinLocation

Past Weather in Taunusstein — Graph

°F

Taunusstein Temperature Yesterday

Maximum temperature yesterday: 88 °F (at 1:58 PM)
Minimum temperature yesterday: 66 °F (at 4:58 AM)
Average temperature yesterday: 75 °F

High & Low Weather Summary for the Past Weeks

 TemperatureHumidityPressure
High90 °F (Jun 23, 3:58 PM)94% (Jun 12, 4:03 AM)30.27 "Hg (Jun 12, 4:03 AM)
Low46 °F (Jun 20, 4:58 AM)39% (Jun 10, 5:58 PM)29.51 "Hg (Jun 14, 3:58 PM)
Average64 °F75%29.89 "Hg
* Reported Jun 10 5:58 PM — Jun 25 5:58 PM, Taunusstein, Weather by CustomWeather, © 2016

Note: Actual official high and low records may vary slightly from our data, if they occured in-between our weather recording intervals... More about our weather records

Advertising

Taunusstein Weather History for the Previous 24 Hours

Scroll right to see more
 ConditionsComfort  
Time TempWeatherWind HumidityBarometerVisibility
5:58 PM
Sat, Jun 25
63 °FLight rain. Overcast.9 mph71%29.94 "HgN/A
4:58 PM63 °FDrizzle. Mostly cloudy.12 mph77%29.94 "HgN/A
3:58 PM65 °FLight rain. Mostly cloudy.14 mph79%29.90 "HgN/A
2:59 PM70 °FLight rain. Mostly cloudy.13 mph73%29.88 "HgN/A
2:04 PM72 °FMostly cloudy.6 mph73%29.88 "HgN/A
1:02 PM72 °FBroken clouds.6 mph69%29.90 "HgN/A
11:58 AM70 °FOvercast.5 mph78%29.91 "HgN/A
11:03 AM68 °FMostly cloudy.6 mph83%29.93 "Hg5 mi
10:58 AM68 °FBroken clouds.6 mph83%29.92 "Hg5 mi
9:58 AM68 °FSunny.No wind78%29.91 "HgN/A
8:59 AM66 °FSunny.3 mph83%29.92 "HgN/A
7:58 AM66 °FDrizzle. Partly sunny.5 mph83%29.92 "HgN/A
6:58 AM65 °FSunny.8 mph84%29.92 "HgN/A
5:58 AM64 °FRain. Passing clouds.9 mph87%29.89 "Hg6 mi
5:00 AM64 °FStrong thunderstorms. Overcast.9 mph88%29.97 "Hg2 mi
4:04 AM70 °FPartly cloudy.3 mph78%29.97 "HgN/A
3:58 AM70 °FPassing clouds.2 mph78%29.96 "HgN/A
2:58 AM69 °FPassing clouds.3 mph78%29.95 "HgN/A
1:58 AM70 °FClear.5 mph78%29.95 "HgN/A
12:58 AM70 °FPassing clouds.6 mph78%29.98 "Hg6 mi
11:58 PM
Fri, Jun 24
69 °FPassing clouds.6 mph79%30.01 "HgN/A
10:58 PM70 °FClear.3 mph79%29.98 "HgN/A
9:58 PM72 °FPassing clouds.7 mph83%29.99 "HgN/A
8:58 PM73 °FSunny.8 mph78%29.99 "HgN/A
7:58 PM74 °FSunny.10 mph73%30.00 "HgN/A
Weather by CustomWeather, © 2016

See weather overviewHow to use our weather pages